Overview Statistics Trail Chart Weather Telemetry Raw packets
 

This is the latest recevied weather packets stored in our database for station/object WD7OO. If no packets are shown the sender has not sent any weather packets the latest 10 day(s).

<< 27 28 29 30 31 32 33 >>
Time Temp. Humidity Pressure Rain* Wind** Luminosity Snow
1788441344 27.22° C 86% 1015.5 hPa 0 mm - 185 W/m² -
1788441057 27.22° C 83% 1015.6 hPa 0 mm - 169 W/m² -
1788440738 26.67° C 84% 1015.5 hPa 0 mm - 155 W/m² -
1788440433 26.67° C 87% 1015.6 hPa 0 mm - 136 W/m² -
1788440131 25.56° C 90% 1015.5 hPa 0 mm - 136 W/m² -
1788439826 25° C 93% 1015.8 hPa 0 mm - 126 W/m² -
1788439521 24.44° C 94% 1015.7 hPa 0 mm - 63 W/m² -
1788439220 24.44° C 95% 1015.7 hPa 0 mm - 60 W/m² -
1788438915 23.89° C 95% 1015.9 hPa 0 mm - 55 W/m² -
1788438614 23.89° C 96% 1015.9 hPa 0 mm - 46 W/m² -
1788438314 23.89° C 96% 1015.6 hPa 0 mm - 34 W/m² -
1788438008 23.89° C 96% 1015.8 hPa 0 mm - 31 W/m² -
1788437703 23.89° C 97% 1015.7 hPa 0 mm - 33 W/m² -
1788437399 23.89° C 97% 1015.8 hPa 0 mm - 37 W/m² -
1788437097 23.89° C 97% 1015.9 hPa 0 mm - 34 W/m² -
1788436796 23.89° C 97% 1015.6 hPa 0 mm - 30 W/m² -
1788436495 23.33° C 98% 1015.8 hPa 0 mm - 26 W/m² -
1788436190 23.33° C 98% 1015.6 hPa 0 mm - 22 W/m² -
1788435885 23.33° C 98% 1015.7 hPa 0 mm - 17 W/m² -
1788435581 23.33° C 98% 1015.9 hPa 0 mm - 15 W/m² -
1788435277 23.33° C 99% 1015.8 hPa 0 mm - 10 W/m² -
1788434972 23.33° C 99% 1015.8 hPa 0 mm - 8 W/m² -
1788434668 22.78° C 99% 1015.7 hPa 0 mm - 6 W/m² -
1788434367 22.78° C 99% 1015.7 hPa 0 mm - 3 W/m² -
1788434061 22.78° C 99% 1015.7 hPa 0 mm - 1 W/m² -

* Rain latest hour (hover to see other rain measurements)
** Current wind speed in m/s (hover to see current wind gust speed)